Starlink 32853

operational
NORAD ID: 62818 Int'l Des: 2025-018 Owner: SPXS Country: US Constellation: starlink
LEOCIRCULAR

Über Starlink 32853

Beschreibung wird geladen...

Live-Position

3D-Globus wird geladen...

Nächste Überflüge

Höhenverlauf

Altitude vs Time

uPlot chart will show altitude changes over time

Zweizeiliger Elementsatz

1 62818U 25018N 25303.98417004 .00012192 00000-0 42331-3 0 9998
2 62818 53.1577 191.7986 0001189 85.3166 274.7970 15.30182394 43328
Epoch: 30. Okt. 2025 • Age: 20 hours

Aktueller Status

Höhe 491.6 km
Geschwindigkeit 7.62 km/s
Subsatellitenpunkt -46.02°S, 85.78°E
Startdatum 24. Jan. 2025
Alter 0.7 years
Typ internet

Technische Details

Klassifizierung Payload
Masse 730.00 kg
Trockenmasse 700.00 kg
Gesamtmasse 730.00 kg
Länge 0.30 m
Durchmesser 4.10 m
Spannweite 29.00 m
Form Box + pan
Hersteller SPXS
Bus-Typ Starlink V2M
Phasenstatus In Orbit
Besitzer/Staat SPXS/US

Große Konstellationen

Loading constellations...